Regional Weather Roundup
Issued by NWS

Home | Current Version | Previous Version | Graphics & Text | Print | Product List | Glossary Off
Versions: 1 2 3 4 5 6 7 8 9 10 11 12 13 14 15 16 17 18 19 20 21 22 23 24 25 26 27 28 29 30 31 32 33 34 35 36 37 38 39 40 41 42 43 44 45 46 47 48 49 50

000
ASUS43 KTOP 061359
RWRKS

WEATHER ROUNDUP FOR KANSAS
NATIONAL WEATHER SERVICE GOODLAND KS
800 AM CST TUE DEC 06 2016

NOTE:  "FAIR" INDICATES FEW OR NO CLOUDS BELOW 12,000 FEET WITH NO
SIGNIFICANT WEATHER AND/OR OBSTRUCTIONS TO VISIBILITY.

KSZ001>006-013>018-027>032-041>047-061500-
NORTHWEST KANSAS

CITY           SKY/WX    TMP DP  RH WIND       PRES   REMARKS
GOODLAND       CLOUDY     7   1  76 W7        30.04R
HAYS           MOCLDY    21  14  74 W6        30.08R
HILL CITY      CLEAR     20   9  62 NW12      30.08R WCI   8
RUSSELL        PTCLDY    20  15  81 NW10      30.06R WCI   9
$$

KSZ061>065-074>080-084>089-061500-
SOUTHWEST KANSAS

CITY           SKY/WX    TMP DP  RH WIND       PRES   REMARKS
DODGE CITY     CLOUDY    20  13  74 NW9       30.07R
ELKHART          N/A     17   0  47 NW7         N/A
GARDEN CITY    CLOUDY    14   8  77 NW12      30.08R WCI   0
GREAT BEND     CLOUDY    23  17  78 NW9       30.08R
LIBERAL        CLOUDY    19   9  63 NW10      30.08F WCI   8
$$

KSZ066>073-081>083-090>101-061500-
SOUTHEAST KANSAS

CITY           SKY/WX    TMP DP  RH WIND       PRES   REMARKS
CHANUTE        CLOUDY    34  25  69 N17G23    29.99R WCI  23
COFFEYVILLE    PTCLDY    35  30  82 NW9       30.00R
HUTCHINSON     CLEAR     27  17  66 N10       30.07R WCI  17
MEDICINE LODGE   N/A     27  17  66 N8        30.08R
NEWTON         CLEAR     26  21  81 N10       30.06R WCI  16
PARSONS        CLOUDY    36  29  75 N16       29.99R WCI  26
WICHITA INTL   PTCLDY    30  20  66 N13       30.05R WCI  20
WICHITA JABRA  CLEAR     28  20  71 N14       30.05R WCI  17
WINFIELD       CLOUDY    31  20  63 N20G25    30.04R WCI  19
$$

KSZ007>012-019>026-033>040-048>060-102>105-061500-
NORTHEAST KANSAS

CITY           SKY/WX    TMP DP  RH WIND       PRES   REMARKS
CONCORDIA      PTCLDY    23  15  71 NW7       30.06R
EMPORIA        CLEAR     29  18  63 N16       30.03R WCI  17
LAWRENCE       PTCLDY    30  22  72 NW16      30.01R WCI  19
MANHATTAN      CLEAR     28  14  55 VRB6      30.07R
OLATHE IND     CLEAR     30  21  69 NW16      29.98R WCI  19
OLATHE EXE     CLEAR     30  22  72 N15       29.97R WCI  19
SALINA         PTCLDY    27  18  69 NW8       30.08R
TOPEKA BILLARD CLEAR     30  21  69 NW12      30.03R WCI  20
TOPEKA FORBES  CLEAR     30  20  66 NW13      30.01R WCI  20
$$




USA.gov is the U.S. government's official web portal to all federal, state and local government web resources and services.